Location: Shepherdstown, WV
(39.4326°N, 77.8042°W)
Time: 05:05:41
(UTC-04:00)

SR - Pass Details

Date: 05 August 2021
Orbit: 581 x 874 km, 66.7° (Epoch: 24 September)

Event Time Altitude Azimuth Distance (km) Brightness Sun altitude
Rises 04:45:27 0° 169° (S) 3,444 ? -15.7°
Reaches altitude 10° 04:48:30 10° 155° (SSE) 2,498 ? -15.2°
Maximum altitude 04:52:46 21° 107° (ESE) 1,794 ? -14.6°
Drops below altitude 10° 04:56:55 10° 59° (ENE) 2,425 ? -13.9°
Sets 04:59:49 0° 45° (NE) 3,316 ? -13.5°
